RH
13 14 15 17 18 20 21 22 23 22 21 18 15 19 28 35 34 34 31 28 22 20 19 18 18 16 15 13 11 9 8 7 6 6 6 5 5 6 6 6 14 21 21 22 31
22 11 15 14 16 18 20 23 25 27 28 28 27 24 21 19 26 33 34 34 32 28 25 23 19 18 15 11 10 8 8 7 6 5 4 4 4 4 4 5 6 7 16 22 21
30 28 27 12 12 12 15 20 25 31 32 33 33 32 30 28 25 27 30 35 35 33 29 22 18 15 12 10 8 7 6 5 4 4 4 3 3 3 3 3 3 4 5 7 13
36 41 39 20 15 16 14 13 16 18 28 30 33 34 35 35 32 30 28 32 36 37 35 23 16 14 12 10 8 7 6 5 4 4 4 3 3 3 3 2 3 3 3 4 6
33 40 45 46 41 22 18 14 8 14 14 16 19 25 30 31 33 34 29 29 35 39 38 29 18 15 13 12 10 8 6 5 4 5 5 4 4 4 3 2 2 2 2 2 3
19 20 25 36 54 50 42 32 34 6 7 12 13 13 14 20 24 31 34 30 30 38 40 34 20 16 15 14 13 9 8 8 7 7 6 7 7 6 4 3 3 3 3 3 2
17 15 15 18 21 29 33 44 42 50 11 5 17 14 11 17 20 26 34 34 32 34 41 36 27 16 14 16 15 12 11 10 10 9 9 9 10 7 5 5 6 5 5 4 3
19 14 12 11 12 14 19 23 31 43 52 16 9 20 12 15 18 25 29 34 33 42 43 38 29 20 18 17 17 17 15 14 12 12 11 11 14 7 6 6 10 9 7 6 5
22 18 13 11 11 12 15 17 20 34 46 48 19 17 17 10 13 21 27 29 34 41 45 39 32 26 22 19 18 20 18 16 17 14 14 12 13 11 8 9 9 14 13 9 8
28 23 14 13 11 10 11 14 15 23 36 43 40 22 19 8 9 19 22 23 28 36 47 42 37 31 28 23 20 20 18 20 18 19 20 19 18 15 10 10 11 21 22 16 11
29 22 16 14 10 8 7 9 12 14 38 40 46 38 22 9 8 16 17 14 19 36 42 43 42 39 32 26 22 22 21 20 22 23 24 26 25 18 12 11 14 27 29 21 17
29 23 17 15 11 9 7 7 8 9 28 46 46 46 29 9 7 14 12 9 11 21 37 39 40 45 40 33 28 24 25 26 29 28 27 31 33 25 17 16 17 37 38 29 23
30 23 19 16 13 11 10 7 5 8 17 38 37 40 30 12 5 8 7 5 8 10 24 34 38 43 47 45 39 32 31 32 30 36 37 35 36 34 26 29 30 41 43 37 30
27 23 22 18 15 12 11 7 5 9 11 33 34 36 24 11 8 8 6 4 4 7 11 19 26 26 35 50 51 47 43 46 38 40 43 42 39 43 35 47 55 66 58 49 43
27 28 25 21 13 13 14 9 7 10 14 16 25 29 36 22 9 8 8 4 4 4 5 8 8 8 14 33 51 55 48 54 55 48 49 46 45 41 29 63 80 80 73 66 53
23 20 25 24 15 16 19 15 11 12 18 16 23 36 47 42 16 9 8 6 6 6 6 7 7 7 7 15 25 46 60 59 62 52 53 51 60 62 43 52 71 75 66 69 60
25 23 24 24 19 19 21 20 16 13 12 16 20 29 40 58 37 9 9 7 7 7 8 8 8 9 9 9 12 16 43 60 61 60 63 55 65 72 79 84 78 67 75 81 76
36 36 39 29 24 23 23 22 18 16 14 12 15 19 42 54 59 24 7 9 9 8 8 8 9 9 10 11 10 10 10 58 83 75 62 59 82 52 51 49 77 70 67 64 74
51 43 42 34 29 27 25 24 23 21 18 15 13 19 30 47 60 60 15 8 11 9 8 8 8 9 10 11 16 12 10 35 80 74 60 58 44 25 34 42 89 75 59 51 71
55 53 49 43 34 29 27 28 26 24 23 19 18 17 22 42 54 64 50 11 9 14 7 9 8 8 7 10 14 14 12 19 76 89 76 58 47 30 30 38 68 63 60 46 59
65 60 55 50 43 38 34 33 32 28 26 25 23 19 22 26 58 65 65 37 6 12 19 29 29 11 14 21 12 15 14 10 46 92 97 64 61 31 30 36 44 50 49 50 50
63 57 58 52 50 48 41 39 38 33 31 29 26 23 22 28 34 52 64 68 35 19 13 29 36 32 22 20 13 18 18 16 10 73 99 80 55 24 24 35 44 41 42 36 46
61 59 58 52 52 53 48 47 45 41 38 35 33 30 29 32 34 40 52 66 82 72 37 33 43 54 61 33 15 19 30 37 15 45 100 90 67 25 18 21 24 28 32 34 48
69 67 66 60 60 60 56 55 52 49 47 44 41 39 35 34 35 36 45 60 71 80 82 43 46 63 77 22 17 19 44 50 23 19 73 98 64 23 22 18 23 29 33 40 43
77 79 72 72 74 67 65 62 58 56 54 52 49 46 44 42 45 46 46 54 62 76 89 85 60 45 64 69 43 32 51 56 45 15 31 100 86 32 26 24 29 32 31 33 36
76 81 80 84 74 71 73 69 63 64 65 62 61 54 48 43 44 40 47 51 59 79 86 74 83 77 71 71 58 62 58 52 64 32 15 90 96 71 20 24 26 26 30 44 64
75 80 87 80 74 77 78 74 72 73 68 65 62 58 53 48 43 42 40 46 51 61 86 76 86 86 79 96 77 54 58 65 76 54 14 82 98 90 42 20 26 32 50 55 64
Wind_Speed
19 19 18 18 17 16 15 15 15 15 15 16 17 17 16 15 15 16 16 17 16 16 17 17 18 19 19 20 20 21 21 23 26 29 33 36 39 41 42 45 49 51 51 50 52
22 20 20 20 18 16 17 16 16 15 15 16 16 17 17 16 16 17 17 16 17 17 17 18 18 19 21 22 23 23 23 24 25 28 31 34 36 38 41 44 48 52 56 55 55
25 23 23 22 22 22 20 20 18 17 16 16 17 17 18 18 17 17 17 17 17 16 16 16 17 19 21 22 23 23 23 24 25 26 28 32 35 37 40 43 45 50 54 57 58
26 26 25 22 22 24 24 24 23 22 20 19 20 19 18 18 19 17 17 17 17 16 16 16 17 18 20 20 21 22 22 23 24 25 26 28 31 33 38 41 44 48 51 57 60
26 27 27 25 21 22 24 24 25 25 24 23 22 23 22 20 19 16 16 17 16 16 15 16 17 18 19 20 20 21 20 21 21 21 23 24 26 28 34 39 42 44 50 53 59
26 28 28 27 23 22 23 24 25 26 26 25 26 25 24 20 17 16 15 15 16 15 15 16 17 18 19 21 21 21 21 21 22 23 24 25 27 29 34 35 37 39 42 47 56
26 27 29 30 28 24 23 23 25 26 26 25 25 26 25 21 17 16 16 14 15 16 15 16 17 17 18 20 20 22 23 26 27 25 26 27 26 31 34 35 34 37 38 42 45
26 26 28 30 32 31 26 23 24 26 27 27 26 25 25 23 17 15 15 14 14 15 15 16 17 17 19 20 21 23 23 26 27 28 29 31 26 35 35 31 32 35 36 37 39
25 26 25 26 28 31 31 28 26 26 25 26 27 26 23 22 21 15 15 14 13 15 14 15 17 18 18 19 19 21 23 26 27 28 30 33 33 33 38 35 33 36 35 37 37
25 24 22 23 26 30 33 32 31 28 26 25 26 25 23 21 21 16 14 15 14 14 15 15 16 18 20 21 21 21 21 25 28 28 31 33 38 37 35 33 33 35 35 36 37
25 23 20 22 23 25 28 32 31 27 25 22 24 25 26 21 19 17 14 15 15 14 15 15 17 18 19 21 23 24 24 26 29 31 30 33 37 39 33 30 32 33 32 32 35
24 24 22 23 22 23 27 29 30 26 23 20 21 23 24 20 17 17 16 15 15 16 16 16 16 18 20 21 23 25 26 28 29 30 33 33 34 38 38 29 29 30 30 29 30
24 24 21 22 22 23 25 27 27 25 26 21 20 22 22 19 18 16 17 19 19 18 18 18 17 18 19 21 23 25 27 29 32 31 32 36 32 36 37 33 31 26 26 25 26
26 22 22 20 22 23 25 25 26 28 27 21 19 17 19 17 17 16 18 18 19 19 19 19 19 19 21 22 24 26 26 28 30 33 34 38 36 33 34 35 33 28 24 24 26
26 23 22 20 22 22 23 23 24 28 27 28 22 21 19 21 21 21 20 18 18 19 21 21 24 24 23 24 26 27 28 30 31 31 32 36 40 39 35 34 31 25 25 25 25
25 24 23 22 21 22 23 24 25 27 26 26 26 23 22 21 22 23 19 19 18 19 20 21 23 25 26 27 28 28 30 30 31 32 33 36 40 39 36 30 29 21 21 22 21
25 25 24 25 23 22 23 24 26 27 27 26 27 27 26 25 23 22 22 20 21 20 20 23 25 27 26 28 28 30 31 32 34 36 34 34 39 39 37 33 29 21 16 18 20
25 28 27 27 25 22 23 26 23 26 28 28 29 28 27 26 26 24 25 24 22 22 23 22 24 27 28 27 30 32 32 33 35 37 35 32 36 38 35 32 26 21 15 15 15
27 29 29 30 27 24 23 25 24 25 27 29 29 29 28 26 27 27 26 28 26 25 26 26 24 27 29 28 30 33 34 32 33 34 38 35 38 38 34 28 25 21 13 12 12
29 29 31 30 29 26 26 24 25 25 27 29 31 30 28 28 28 27 29 29 31 26 23 24 25 25 29 29 29 31 34 33 33 36 38 37 39 38 32 23 18 14 13 10 11
31 31 30 31 29 28 26 25 25 25 25 27 30 32 31 30 29 30 31 32 30 29 27 31 29 23 27 29 29 29 32 32 31 34 31 38 36 35 27 22 15 12 8 9 12
32 30 31 32 31 29 27 27 26 26 27 28 30 32 31 32 31 30 29 32 33 28 27 29 30 21 24 26 27 24 29 33 33 35 31 30 34 32 26 23 17 12 10 9 12
32 33 33 34 32 30 28 29 29 27 28 28 31 33 34 33 34 32 32 30 32 37 35 35 36 36 28 25 24 20 26 31 31 30 30 26 28 30 22 21 18 15 11 12 14
35 35 35 35 35 32 31 31 30 29 30 30 32 34 37 36 35 33 31 32 32 32 36 41 34 32 26 21 23 19 24 29 30 30 31 27 23 23 20 16 16 15 15 14 11
37 39 38 37 38 35 33 34 34 34 32 33 33 35 36 39 38 36 34 33 34 34 33 36 35 30 26 25 22 18 19 27 29 30 29 28 19 20 17 16 16 15 12 12 10
39 41 39 39 38 36 38 38 36 35 34 35 36 37 38 41 43 41 38 36 32 31 31 34 36 37 27 25 24 24 29 30 30 28 26 27 17 19 16 15 15 15 12 12 13
39 39 41 39 38 40 41 41 39 40 40 39 40 40 40 42 43 41 39 36 36 29 28 31 34 35 31 31 29 26 26 24 25 25 24 21 17 15 17 13 10 12 14 15 13
Wind_Direction
342 343 335 332 331 328 331 334 342 343 345 342 336 328 324 323 320 318 315 314 313 310 307 307 309 307 306 305 300 293 286 277 270 265 262 258 256 254 251 247 245 244 242 241 242
347 342 348 335 333 330 329 332 334 336 338 340 344 345 343 333 321 318 317 317 313 310 307 307 308 308 309 308 303 297 290 283 278 273 270 267 262 259 254 249 246 246 244 242 242
345 347 345 339 340 334 329 326 325 324 325 327 328 334 337 340 336 327 320 317 315 312 310 306 306 307 308 308 305 301 298 290 284 281 278 274 269 264 260 255 250 245 245 244 241
343 342 338 338 336 334 334 328 323 317 312 313 313 315 321 326 333 334 330 322 315 313 314 312 305 308 311 314 312 308 304 300 295 292 289 283 277 273 266 261 257 253 247 244 242
340 337 337 334 331 327 327 330 327 320 318 315 313 309 307 310 313 322 332 333 323 315 317 316 309 313 316 321 323 319 317 315 311 310 309 304 296 293 276 267 261 256 253 249 244
342 339 335 331 325 324 321 321 323 323 322 323 321 321 316 308 305 307 316 330 336 327 324 324 315 310 317 324 328 326 326 326 324 323 323 318 310 299 287 279 274 268 259 253 248
346 342 339 335 333 330 323 315 317 316 316 319 324 326 324 316 305 301 308 322 329 331 327 328 324 313 315 324 329 331 327 329 330 331 332 328 324 307 295 293 291 281 271 265 256
345 345 338 338 339 339 333 328 320 312 311 314 316 323 329 318 309 301 308 321 329 332 329 333 335 327 322 324 330 332 331 329 329 333 332 330 334 313 307 299 290 285 278 270 264
344 347 339 336 335 335 341 341 330 314 312 308 311 317 323 322 312 300 306 319 322 331 330 332 336 335 332 330 330 332 328 329 334 335 332 328 323 322 315 308 294 284 278 274 269
342 346 341 337 337 336 337 341 340 325 311 310 307 312 318 322 309 295 304 314 317 327 329 327 330 332 333 334 332 333 330 332 334 338 337 335 326 327 320 309 295 283 280 271 267
340 341 344 346 345 343 341 342 347 339 316 314 308 310 315 318 308 293 298 312 318 324 329 327 326 326 330 333 335 337 335 332 331 333 337 335 327 326 323 312 299 286 279 273 269
339 338 338 348 349 349 344 347 346 347 331 317 312 310 313 310 308 297 301 307 309 310 317 325 325 323 325 329 331 335 337 335 333 329 331 334 330 326 322 317 300 287 281 277 276
332 335 338 344 350 353 350 346 345 348 344 328 324 314 313 308 303 298 304 310 308 307 310 315 323 324 322 326 329 331 336 337 335 333 330 328 332 326 323 314 303 292 286 282 284
325 334 332 344 344 353 353 348 344 347 348 339 325 322 314 304 301 299 303 305 307 304 302 308 314 324 329 328 327 328 330 335 335 336 334 328 331 327 326 319 311 297 291 291 299
322 328 327 335 344 347 352 348 343 347 345 338 326 320 304 299 293 297 297 301 307 308 308 310 318 322 324 329 329 327 327 334 336 337 336 330 333 331 332 323 318 292 284 292 305
319 323 322 327 340 342 350 345 343 340 340 337 328 317 307 293 293 294 294 296 299 307 314 322 323 324 328 324 325 331 328 329 334 339 344 337 332 332 331 322 324 310 282 296 310
313 319 324 325 330 336 343 337 336 337 333 333 327 321 315 302 288 287 288 292 296 300 306 312 318 321 326 327 327 325 331 331 336 341 348 341 334 336 332 328 326 319 286 292 305
306 313 322 323 323 330 334 332 334 332 327 328 328 323 316 307 291 284 282 285 289 296 298 305 309 313 320 327 330 330 329 336 335 338 343 347 338 339 336 330 327 325 301 296 301
302 310 316 318 319 321 322 325 329 330 326 324 322 323 317 307 301 287 280 278 280 288 292 295 300 307 313 321 327 329 328 333 332 335 339 354 341 347 342 332 326 330 312 303 308
299 303 310 314 316 315 317 322 325 324 324 322 318 319 316 307 300 297 280 277 274 279 286 294 296 299 305 314 321 326 326 330 338 338 337 353 346 354 349 342 328 330 320 303 315
299 300 303 306 308 310 316 318 318 317 316 317 313 314 314 307 300 299 289 280 283 280 281 286 290 296 300 304 313 321 324 329 337 339 338 349 349 353 355 358 358 356 333 316 313
296 297 301 304 304 310 312 313 313 310 309 312 310 310 308 305 300 297 296 285 281 285 280 279 284 297 298 299 306 316 323 328 335 338 334 349 348 356 355 354 356 349 335 330 330
293 294 299 300 302 305 309 309 306 303 304 307 306 305 303 301 296 297 296 294 289 279 280 281 281 283 293 292 299 313 318 322 331 333 334 345 350 353 357 360 7 1 350 337 336
295 294 297 297 300 302 304 309 302 302 299 301 302 302 299 299 295 296 297 297 293 291 278 278 285 289 285 297 302 313 315 317 325 329 334 334 352 351 352 346 355 355 349 342 341
294 293 293 296 297 297 303 306 302 302 299 298 298 297 296 296 293 294 294 296 297 293 288 282 276 277 282 277 290 302 311 310 322 323 328 333 346 343 353 357 2 7 3 8 10
293 291 290 292 290 296 303 303 300 298 298 298 294 291 291 291 291 293 296 296 294 293 292 289 274 267 271 284 284 287 293 301 303 316 323 330 333 341 332 345 2 13 10 19 9
291 291 290 290 290 297 300 300 299 300 299 296 293 293 291 288 289 292 293 291 293 293 289 284 285 284 282 275 275 290 296 295 289 307 314 327 331 339 340 339 360 10 10 3 359